Time,TemperatureF,DewpointF,PressureIn,WindDirection,WindDirectionDegrees,WindSpeedMPH,WindSpeedGustMPH,Humidity,HourlyPrecipIn,Conditions,Clouds,dailyrainin,SoftwareType,DateUTC
2013-02-08 00:01:00,44.8,44.0,30.39,West,270,1.6,3.1,97,0.00,,,2.29,pywws,2013-02-08 05:01:00,
2013-02-08 00:06:00,44.8,44.0,30.40,West,270,1.6,3.1,97,0.00,,,0.00,pywws,2013-02-08 05:06:00,
2013-02-08 00:11:00,44.6,43.8,30.40,NW,315,1.6,3.8,97,0.00,,,0.00,pywws,2013-02-08 05:11:00,
2013-02-08 00:16:00,44.6,43.5,30.40,North,0,1.6,3.1,96,0.00,,,0.00,pywws,2013-02-08 05:16:00,
2013-02-08 00:21:00,44.6,43.5,30.40,NW,315,0.7,2.2,96,0.00,,,0.00,pywws,2013-02-08 05:21:00,
2013-02-08 00:31:00,44.4,43.4,30.40,NE,45,0.7,3.1,96,0.00,,,0.00,pywws,2013-02-08 05:31:00,
2013-02-08 00:36:00,44.4,43.4,30.41,NNE,22,2.2,4.5,96,0.00,,,0.00,pywws,2013-02-08 05:36:00,
2013-02-08 00:41:00,44.4,43.4,30.41,NW,315,2.2,4.5,96,0.00,,,0.00,pywws,2013-02-08 05:41:00,
2013-02-08 00:46:00,44.6,43.5,30.42,NW,315,1.6,3.8,96,0.00,,,0.00,pywws,2013-02-08 05:46:00,
2013-02-08 00:51:00,44.4,43.4,30.42,North,0,1.6,4.5,96,0.00,,,0.00,pywws,2013-02-08 05:51:00,
2013-02-08 01:01:00,44.4,43.4,30.42,NW,315,1.6,3.8,96,0.00,,,0.00,pywws,2013-02-08 06:01:00,
2013-02-08 01:06:00,44.4,43.4,30.42,NW,315,2.2,3.8,96,0.00,,,0.00,pywws,2013-02-08 06:06:00,
2013-02-08 01:11:00,44.2,43.2,30.43,NE,45,0.7,3.1,96,0.00,,,0.00,pywws,2013-02-08 06:11:00,
2013-02-08 01:16:00,44.2,43.2,30.43,NW,315,0.0,2.2,96,0.00,,,0.00,pywws,2013-02-08 06:16:00,
2013-02-08 01:21:00,44.2,43.2,30.43,West,270,1.6,3.8,96,0.00,,,0.00,pywws,2013-02-08 06:21:00,
2013-02-08 01:31:00,44.2,43.2,30.43,North,0,1.6,3.1,96,0.00,,,0.00,pywws,2013-02-08 06:31:00,
2013-02-08 01:36:00,44.1,42.7,30.43,SE,135,3.1,6.0,95,0.00,,,0.00,pywws,2013-02-08 06:36:00,
2013-02-08 01:46:00,44.1,43.0,30.44,North,0,1.6,3.8,96,0.00,,,0.00,pywws,2013-02-08 06:46:00,
2013-02-08 01:51:00,44.1,42.7,30.44,West,270,2.2,3.8,95,0.00,,,0.00,pywws,2013-02-08 06:51:00,
2013-02-08 02:01:00,44.1,42.7,30.45,SW,225,0.0,0.7,95,0.00,,,0.00,pywws,2013-02-08 07:01:00,
2013-02-08 02:06:00,44.1,42.7,30.45,SE,135,1.6,3.8,95,0.00,,,0.00,pywws,2013-02-08 07:06:00,
2013-02-08 02:11:00,44.1,42.7,30.45,WNW,292,0.7,3.1,95,0.00,,,0.00,pywws,2013-02-08 07:11:00,
2013-02-08 02:16:00,44.1,42.7,30.45,WSW,248,1.6,3.8,95,0.00,,,0.00,pywws,2013-02-08 07:16:00,
2013-02-08 02:21:00,44.1,42.7,30.45,West,270,1.6,3.1,95,0.00,,,0.00,pywws,2013-02-08 07:21:00,
2013-02-08 02:31:00,44.1,42.7,30.45,West,270,2.2,3.8,95,0.00,,,0.00,pywws,2013-02-08 07:31:00,
2013-02-08 02:36:00,44.1,42.7,30.46,NW,315,2.2,4.5,95,0.00,,,0.00,pywws,2013-02-08 07:36:00,
2013-02-08 02:41:00,44.1,42.7,30.46,West,270,0.7,2.2,95,0.00,,,0.00,pywws,2013-02-08 07:41:00,
2013-02-08 02:46:00,44.1,42.7,30.46,West,270,2.2,3.8,95,0.00,,,0.00,pywws,2013-02-08 07:46:00,
2013-02-08 02:51:00,44.1,42.4,30.46,West,270,1.6,3.1,94,0.00,,,0.00,pywws,2013-02-08 07:51:00,
2013-02-08 03:01:00,44.1,42.4,30.47,NW,315,0.7,1.6,94,0.00,,,0.00,pywws,2013-02-08 08:01:00,
2013-02-08 03:06:00,44.1,42.4,30.47,WNW,292,0.7,2.2,94,0.00,,,0.00,pywws,2013-02-08 08:06:00,
2013-02-08 03:11:00,44.1,42.4,30.47,NW,315,1.6,2.2,94,0.00,,,0.00,pywws,2013-02-08 08:11:00,
2013-02-08 03:16:00,44.1,42.4,30.47,North,0,0.7,2.2,94,0.00,,,0.00,pywws,2013-02-08 08:16:00,
2013-02-08 03:21:00,43.9,42.3,30.47,NW,315,0.7,1.6,94,0.00,,,0.00,pywws,2013-02-08 08:21:00,
2013-02-08 03:31:00,43.9,42.5,30.47,NE,45,1.6,3.1,95,0.00,,,0.00,pywws,2013-02-08 08:31:00,
2013-02-08 03:36:00,43.5,41.9,30.47,NW,315,0.0,1.6,94,0.00,,,0.00,pywws,2013-02-08 08:36:00,
2013-02-08 03:41:00,44.1,42.4,30.48,NW,315,0.7,2.2,94,0.00,,,0.00,pywws,2013-02-08 08:41:00,
2013-02-08 03:46:00,44.1,42.4,30.48,West,270,0.7,1.6,94,0.00,,,0.00,pywws,2013-02-08 08:46:00,
2013-02-08 03:51:00,44.2,42.6,30.48,West,270,0.7,1.6,94,0.00,,,0.00,pywws,2013-02-08 08:51:00,
2013-02-08 04:01:00,43.7,42.1,30.48,North,0,0.7,2.2,94,0.00,,,0.00,pywws,2013-02-08 09:01:00,
2013-02-08 04:06:00,44.2,42.6,30.49,NW,315,1.6,2.2,94,0.00,,,0.00,pywws,2013-02-08 09:06:00,
2013-02-08 04:11:00,44.2,42.6,30.49,East,90,0.7,1.6,94,0.00,,,0.00,pywws,2013-02-08 09:11:00,
2013-02-08 04:16:00,44.2,42.6,30.49,North,0,0.7,2.2,94,0.00,,,0.00,pywws,2013-02-08 09:16:00,
2013-02-08 04:21:00,44.4,42.8,30.48,NW,315,1.6,2.2,94,0.00,,,0.00,pywws,2013-02-08 09:21:00,
2013-02-08 04:31:00,44.4,42.8,30.47,North,0,0.0,0.7,94,0.00,,,0.00,pywws,2013-02-08 09:31:00,
2013-02-08 04:36:00,44.4,42.8,30.46,West,270,0.7,1.6,94,0.00,,,0.00,pywws,2013-02-08 09:36:00,
2013-02-08 04:41:00,44.2,42.6,30.45,West,270,0.0,2.2,94,0.00,,,0.00,pywws,2013-02-08 09:41:00,
2013-02-08 04:46:00,44.2,42.6,30.44,NW,315,1.6,3.1,94,0.00,,,0.00,pywws,2013-02-08 09:46:00,
2013-02-08 04:51:00,44.2,42.6,30.43,West,270,0.7,1.6,94,0.00,,,0.00,pywws,2013-02-08 09:51:00,
2013-02-08 05:01:00,44.2,42.6,30.42,West,270,0.0,0.7,94,0.00,,,0.00,pywws,2013-02-08 10:01:00,
2013-02-08 05:06:00,44.1,42.4,30.41,West,270,1.6,2.2,94,0.00,,,0.00,pywws,2013-02-08 10:06:00,
2013-02-08 05:11:00,43.7,42.1,30.41,NW,315,0.0,0.7,94,0.00,,,0.00,pywws,2013-02-08 10:11:00,
2013-02-08 05:16:00,43.7,42.4,30.41,West,270,3.1,3.8,95,0.00,,,0.00,pywws,2013-02-08 10:16:00,
2013-02-08 05:21:00,43.5,42.2,30.41,NW,315,0.7,1.6,95,0.00,,,0.00,pywws,2013-02-08 10:21:00,
2013-02-08 05:31:00,43.5,42.2,30.42,NW,315,0.7,1.6,95,0.00,,,0.00,pywws,2013-02-08 10:31:00,
2013-02-08 05:36:00,43.3,42.0,30.42,NW,315,0.0,1.6,95,0.00,,,0.00,pywws,2013-02-08 10:36:00,
2013-02-08 05:41:00,43.3,42.0,30.42,West,270,0.0,0.0,95,0.00,,,0.00,pywws,2013-02-08 10:41:00,
2013-02-08 05:46:00,43.2,41.8,30.43,South,180,0.0,0.7,95,0.00,,,0.00,pywws,2013-02-08 10:46:00,
2013-02-08 05:51:00,43.0,41.6,30.43,South,180,0.0,0.7,95,0.00,,,0.00,pywws,2013-02-08 10:51:00,
2013-02-08 06:01:00,42.8,41.5,30.43,West,270,0.0,1.6,95,0.00,,,0.00,pywws,2013-02-08 11:01:00,
2013-02-08 06:06:00,42.8,41.5,30.44,NW,315,0.0,1.6,95,0.00,,,0.00,pywws,2013-02-08 11:06:00,
2013-02-08 06:11:00,42.6,41.3,30.44,West,270,0.7,1.6,95,0.00,,,0.00,pywws,2013-02-08 11:11:00,
2013-02-08 06:16:00,42.6,41.6,30.45,West,270,1.6,3.1,96,0.00,,,0.00,pywws,2013-02-08 11:16:00,
2013-02-08 06:21:00,42.8,41.7,30.44,West,270,1.6,2.2,96,0.00,,,0.00,pywws,2013-02-08 11:21:00,
2013-02-08 06:31:00,42.8,41.7,30.43,NW,315,1.6,3.1,96,0.00,,,0.00,pywws,2013-02-08 11:31:00,
2013-02-08 06:36:00,43.0,41.9,30.42,NW,315,1.6,3.1,96,0.00,,,0.00,pywws,2013-02-08 11:36:00,
2013-02-08 06:41:00,43.0,41.9,30.40,West,270,2.2,3.8,96,0.00,,,0.00,pywws,2013-02-08 11:41:00,
2013-02-08 06:46:00,43.2,42.1,30.39,NW,315,0.7,3.1,96,0.00,,,0.00,pywws,2013-02-08 11:46:00,
2013-02-08 06:51:00,43.2,42.1,30.38,NW,315,0.7,1.6,96,0.00,,,0.00,pywws,2013-02-08 11:51:00,
2013-02-08 07:01:00,43.2,42.1,30.38,West,270,1.6,2.2,96,0.00,,,0.00,pywws,2013-02-08 12:01:00,
2013-02-08 07:06:00,43.3,42.3,30.38,West,270,2.2,5.4,96,0.00,,,0.00,pywws,2013-02-08 12:06:00,
2013-02-08 07:11:00,43.3,42.3,30.39,NW,315,0.7,1.6,96,0.00,,,0.00,pywws,2013-02-08 12:11:00,
2013-02-08 07:16:00,43.3,42.3,30.39,NW,315,0.7,1.6,96,0.00,,,0.00,pywws,2013-02-08 12:16:00,
2013-02-08 07:21:00,43.3,42.3,30.40,NW,315,0.7,2.2,96,0.00,,,0.00,pywws,2013-02-08 12:21:00,
2013-02-08 07:31:00,43.3,42.3,30.40,NW,315,0.7,1.6,96,0.00,,,0.00,pywws,2013-02-08 12:31:00,
2013-02-08 07:36:00,43.5,42.5,30.39,NW,315,0.0,1.6,96,0.00,,,0.00,pywws,2013-02-08 12:36:00,
2013-02-08 07:41:00,43.3,42.3,30.38,SE,135,0.0,0.7,96,0.00,,,0.00,pywws,2013-02-08 12:41:00,
2013-02-08 07:46:00,43.5,42.5,30.37,NW,315,0.0,0.7,96,0.00,,,0.00,pywws,2013-02-08 12:46:00,
2013-02-08 07:51:00,43.5,42.5,30.35,North,0,0.0,0.0,96,0.00,,,0.00,pywws,2013-02-08 12:51:00,
2013-02-08 08:01:00,43.5,42.5,30.34,ENE,68,0.0,1.6,96,0.00,,,0.00,pywws,2013-02-08 13:01:00,
2013-02-08 08:06:00,43.7,42.6,30.32,NW,315,0.0,1.6,96,0.00,,,0.00,pywws,2013-02-08 13:06:00,
2013-02-08 08:11:00,43.9,42.5,30.31,NW,315,1.6,2.2,95,0.00,,,0.00,pywws,2013-02-08 13:11:00,
2013-02-08 08:16:00,43.9,42.5,30.30,NW,315,1.6,2.2,95,0.00,,,0.00,pywws,2013-02-08 13:16:00,
2013-02-08 08:21:00,44.1,42.7,30.29,North,0,0.7,3.1,95,0.00,,,0.00,pywws,2013-02-08 13:21:00,
2013-02-08 08:31:00,44.1,42.7,30.28,West,270,2.2,4.5,95,0.00,,,0.00,pywws,2013-02-08 13:31:00,
2013-02-08 08:36:00,44.2,42.6,30.26,West,270,1.6,3.1,94,0.00,,,0.00,pywws,2013-02-08 13:36:00,
2013-02-08 08:41:00,44.4,42.8,30.26,West,270,0.0,1.6,94,0.00,,,0.00,pywws,2013-02-08 13:41:00,
2013-02-08 08:46:00,44.1,42.4,30.27,NW,315,0.0,0.7,94,0.00,,,0.00,pywws,2013-02-08 13:46:00,
2013-02-08 08:51:00,44.4,42.8,30.27,West,270,3.1,4.5,94,0.00,,,0.00,pywws,2013-02-08 13:51:00,
2013-02-08 09:01:00,43.9,42.0,30.28,West,270,0.7,1.6,93,0.00,,,0.00,pywws,2013-02-08 14:01:00,
2013-02-08 09:06:00,44.4,42.5,30.29,NW,315,0.0,2.2,93,0.00,,,0.00,pywws,2013-02-08 14:06:00,
2013-02-08 09:11:00,44.6,42.7,30.30,SE,135,3.1,5.4,93,0.00,,,0.00,pywws,2013-02-08 14:11:00,
2013-02-08 09:16:00,44.1,41.9,30.31,SE,135,0.0,1.6,92,0.00,,,0.00,pywws,2013-02-08 14:16:00,
2013-02-08 09:21:00,44.6,42.4,30.31,North,0,0.7,2.2,92,0.00,,,0.00,pywws,2013-02-08 14:21:00,
2013-02-08 09:31:00,45.0,42.8,30.32,North,0,0.7,2.2,92,0.00,,,0.00,pywws,2013-02-08 14:31:00,
2013-02-08 09:36:00,44.8,42.3,30.32,NW,315,1.6,3.1,91,0.00,,,0.00,pywws,2013-02-08 14:36:00,
2013-02-08 09:41:00,45.0,42.8,30.33,West,270,1.6,3.8,92,0.00,,,0.00,pywws,2013-02-08 14:41:00,
2013-02-08 09:46:00,45.0,42.5,30.33,NW,315,0.7,1.6,91,0.00,,,0.00,pywws,2013-02-08 14:46:00,
2013-02-08 09:51:00,45.0,42.5,30.33,NW,315,1.6,3.1,91,0.00,,,0.00,pywws,2013-02-08 14:51:00,
2013-02-08 10:01:00,45.1,42.7,30.33,NW,315,2.2,3.8,91,0.00,,,0.00,pywws,2013-02-08 15:01:00,
2013-02-08 10:06:00,45.1,42.4,30.31,North,0,1.6,3.1,90,0.01,,,0.01,pywws,2013-02-08 15:06:00,
2013-02-08 10:11:00,45.3,42.8,30.30,West,270,1.6,3.1,91,0.01,,,0.01,pywws,2013-02-08 15:11:00,
2013-02-08 10:16:00,45.5,42.7,30.29,West,270,3.1,4.5,90,0.01,,,0.01,pywws,2013-02-08 15:16:00,
2013-02-08 10:21:00,45.5,42.7,30.28,North,0,1.6,3.8,90,0.01,,,0.01,pywws,2013-02-08 15:21:00,
2013-02-08 10:31:00,45.7,42.9,30.27,West,270,0.7,2.2,90,0.01,,,0.01,pywws,2013-02-08 15:31:00,
2013-02-08 10:36:00,45.9,42.8,30.27,NW,315,1.6,3.8,89,0.01,,,0.01,pywws,2013-02-08 15:36:00,
2013-02-08 10:41:00,45.9,42.8,30.27,NW,315,2.2,4.5,89,0.01,,,0.01,pywws,2013-02-08 15:41:00,
2013-02-08 10:46:00,46.0,43.0,30.28,NW,315,1.6,2.2,89,0.01,,,0.01,pywws,2013-02-08 15:46:00,
2013-02-08 10:51:00,46.0,43.0,30.28,West,270,1.6,3.1,89,0.01,,,0.01,pywws,2013-02-08 15:51:00,
2013-02-08 11:01:00,46.2,42.9,30.29,West,270,0.7,2.2,88,0.01,,,0.01,pywws,2013-02-08 16:01:00,
2013-02-08 11:06:00,46.8,43.4,30.30,NW,315,2.2,4.5,88,0.00,,,0.01,pywws,2013-02-08 16:06:00,
2013-02-08 11:11:00,47.1,43.5,30.30,West,270,1.6,3.8,87,0.00,,,0.01,pywws,2013-02-08 16:11:00,
2013-02-08 11:16:00,47.1,43.5,30.31,West,270,1.6,3.1,87,0.00,,,0.01,pywws,2013-02-08 16:16:00,
2013-02-08 11:21:00,47.7,44.0,30.31,West,270,2.2,4.5,87,0.00,,,0.01,pywws,2013-02-08 16:21:00,
2013-02-08 11:31:00,47.8,43.9,30.32,West,270,2.2,4.5,86,0.00,,,0.01,pywws,2013-02-08 16:31:00,
2013-02-08 11:36:00,48.6,43.9,30.32,West,270,2.2,3.8,84,0.00,,,0.01,pywws,2013-02-08 16:36:00,
2013-02-08 11:41:00,48.4,43.5,30.32,NNW,338,1.6,3.1,83,0.00,,,0.01,pywws,2013-02-08 16:41:00,
2013-02-08 11:46:00,48.6,43.6,30.32,South,180,2.2,6.0,83,0.00,,,0.01,pywws,2013-02-08 16:46:00,
2013-02-08 11:51:00,49.1,44.2,30.33,SW,225,2.2,4.5,83,0.00,,,0.01,pywws,2013-02-08 16:51:00,
2013-02-08 12:01:00,49.3,44.0,30.33,South,180,2.2,3.8,82,0.00,,,0.01,pywws,2013-02-08 17:01:00,
2013-02-08 12:05:00,50.0,44.4,30.33,West,270,3.1,6.0,81,0.00,,,0.01,pywws,2013-02-08 17:05:00,
2013-02-08 12:10:00,50.0,44.4,30.33,West,270,1.6,3.1,81,0.00,,,0.01,pywws,2013-02-08 17:10:00,
2013-02-08 12:15:00,50.4,44.8,30.33,West,270,0.7,2.2,81,0.00,,,0.01,pywws,2013-02-08 17:15:00,
2013-02-08 12:20:00,51.8,45.5,30.32,SW,225,2.2,4.5,79,0.00,,,0.01,pywws,2013-02-08 17:20:00,
2013-02-08 12:31:00,52.5,46.2,30.30,North,0,0.7,4.5,79,0.00,,,0.01,pywws,2013-02-08 17:31:00,
2013-02-08 12:36:00,52.7,45.3,30.27,SW,225,1.6,3.8,76,0.00,,,0.01,pywws,2013-02-08 17:36:00,
2013-02-08 12:41:00,52.9,45.2,30.27,SW,225,4.5,8.3,75,0.00,,,0.01,pywws,2013-02-08 17:41:00,
2013-02-08 12:46:00,52.9,45.2,30.27,SE,135,1.6,3.8,75,0.00,,,0.01,pywws,2013-02-08 17:46:00,
2013-02-08 12:51:00,52.7,45.0,30.27,SW,225,1.6,3.1,75,0.00,,,0.01,pywws,2013-02-08 17:51:00,
2013-02-08 13:01:00,53.6,46.2,30.27,SSE,158,3.1,6.0,76,0.00,,,0.01,pywws,2013-02-08 18:01:00,
2013-02-08 13:06:00,55.2,46.7,30.27,SW,225,2.2,6.0,73,0.00,,,0.01,pywws,2013-02-08 18:06:00,
2013-02-08 13:11:00,55.2,46.7,30.28,South,180,2.2,6.9,73,0.00,,,0.01,pywws,2013-02-08 18:11:00,
2013-02-08 13:16:00,55.0,46.2,30.28,SW,225,1.6,3.1,72,0.00,,,0.01,pywws,2013-02-08 18:16:00,
2013-02-08 13:21:00,56.1,46.8,30.29,West,270,2.2,4.5,71,0.00,,,0.01,pywws,2013-02-08 18:21:00,
2013-02-08 13:31:00,56.5,46.8,30.29,SW,225,3.1,5.4,70,0.00,,,0.01,pywws,2013-02-08 18:31:00,
2013-02-08 13:36:00,56.7,46.6,30.29,West,270,2.2,6.0,69,0.00,,,0.01,pywws,2013-02-08 18:36:00,
2013-02-08 13:41:00,56.5,46.4,30.29,SE,135,3.8,6.0,69,0.00,,,0.01,pywws,2013-02-08 18:41:00,
2013-02-08 13:46:00,56.7,46.6,30.29,West,270,4.5,6.9,69,0.00,,,0.01,pywws,2013-02-08 18:46:00,
2013-02-08 13:51:00,57.2,46.7,30.29,NW,315,5.4,8.3,68,0.00,,,0.01,pywws,2013-02-08 18:51:00,
2013-02-08 14:01:00,58.1,47.6,30.29,West,270,3.8,6.9,68,0.00,,,0.01,pywws,2013-02-08 19:01:00,
2013-02-08 14:06:00,59.0,47.7,30.29,WNW,292,3.8,6.9,66,0.00,,,0.01,pywws,2013-02-08 19:06:00,
2013-02-08 14:11:00,59.0,47.7,30.29,SW,225,3.1,5.4,66,0.00,,,0.01,pywws,2013-02-08 19:11:00,
2013-02-08 14:16:00,59.0,47.7,30.29,West,270,3.1,6.0,66,0.00,,,0.01,pywws,2013-02-08 19:16:00,
2013-02-08 14:21:00,59.0,47.7,30.29,SW,225,3.8,6.0,66,0.00,,,0.01,pywws,2013-02-08 19:21:00,
2013-02-08 14:31:00,59.2,47.8,30.30,North,0,6.0,10.7,66,0.00,,,0.01,pywws,2013-02-08 19:31:00,
2013-02-08 14:36:00,60.4,48.2,30.30,West,270,4.5,6.0,64,0.00,,,0.01,pywws,2013-02-08 19:36:00,
2013-02-08 14:41:00,61.0,48.7,30.30,West,270,3.1,5.4,64,0.00,,,0.01,pywws,2013-02-08 19:41:00,
2013-02-08 14:46:00,61.3,48.6,30.30,NW,315,6.9,10.7,63,0.00,,,0.01,pywws,2013-02-08 19:46:00,
2013-02-08 14:51:00,61.2,48.5,30.30,West,270,4.5,7.6,63,0.00,,,0.01,pywws,2013-02-08 19:51:00,
2013-02-08 15:01:00,61.5,48.4,30.30,SW,225,3.1,6.9,62,0.00,,,0.01,pywws,2013-02-08 20:01:00,
2013-02-08 15:06:00,61.0,47.9,30.30,SE,135,4.5,8.3,62,0.00,,,0.01,pywws,2013-02-08 20:06:00,
2013-02-08 15:11:00,60.6,48.4,30.30,West,270,3.8,5.4,64,0.00,,,0.01,pywws,2013-02-08 20:11:00,
2013-02-08 15:16:00,60.6,48.8,30.30,West,270,4.5,6.0,65,0.00,,,0.01,pywws,2013-02-08 20:16:00,
2013-02-08 15:21:00,60.3,48.4,30.30,NW,315,4.5,9.2,65,0.00,,,0.01,pywws,2013-02-08 20:21:00,
2013-02-08 15:31:00,60.3,48.4,30.30,SW,225,3.1,4.5,65,0.00,,,0.01,pywws,2013-02-08 20:31:00,
2013-02-08 15:36:00,60.4,48.6,30.30,West,270,1.6,4.5,65,0.00,,,0.01,pywws,2013-02-08 20:36:00,
2013-02-08 15:41:00,61.7,49.0,30.30,West,270,5.4,8.3,63,0.00,,,0.01,pywws,2013-02-08 20:41:00,
2013-02-08 15:46:00,62.2,49.1,30.31,NW,315,5.4,10.7,62,0.00,,,0.01,pywws,2013-02-08 20:46:00,
2013-02-08 15:51:00,62.4,48.8,30.31,SW,225,4.5,7.6,61,0.00,,,0.01,pywws,2013-02-08 20:51:00,
2013-02-08 16:01:00,62.8,49.1,30.31,West,270,3.1,4.5,61,0.00,,,0.01,pywws,2013-02-08 21:01:00,
2013-02-08 16:06:00,62.2,49.1,30.30,West,270,3.1,6.9,62,0.00,,,0.01,pywws,2013-02-08 21:06:00,
2013-02-08 16:11:00,63.1,49.5,30.31,West,270,2.2,5.4,61,0.00,,,0.01,pywws,2013-02-08 21:11:00,
2013-02-08 16:16:00,63.3,49.6,30.31,NNW,338,2.2,5.4,61,0.00,,,0.01,pywws,2013-02-08 21:16:00,
2013-02-08 16:21:00,62.2,48.6,30.30,NW,315,2.2,3.8,61,0.00,,,0.01,pywws,2013-02-08 21:21:00,
2013-02-08 16:31:00,61.9,48.7,30.30,WNW,292,4.5,6.9,62,0.00,,,0.01,pywws,2013-02-08 21:31:00,
2013-02-08 16:35:00,62.2,48.6,30.30,SW,225,3.8,5.4,61,0.00,,,0.01,pywws,2013-02-08 21:35:00,
2013-02-08 16:40:00,62.8,49.1,30.30,North,0,3.1,6.0,61,0.00,,,0.01,pywws,2013-02-08 21:40:00,
2013-02-08 16:45:00,63.0,49.3,30.30,West,270,5.4,9.2,61,0.00,,,0.01,pywws,2013-02-08 21:45:00,
2013-02-08 16:50:00,62.1,48.4,30.30,WNW,292,5.4,8.3,61,0.00,,,0.01,pywws,2013-02-08 21:50:00,
2013-02-08 17:01:00,61.3,48.6,30.30,West,270,4.5,8.3,63,0.00,,,0.01,pywws,2013-02-08 22:01:00,
2013-02-08 17:06:00,59.7,48.3,30.30,West,270,5.4,9.8,66,0.00,,,0.01,pywws,2013-02-08 22:06:00,
2013-02-08 17:11:00,59.5,48.2,30.30,North,0,3.1,8.3,66,0.00,,,0.01,pywws,2013-02-08 22:11:00,
2013-02-08 17:16:00,59.4,48.4,30.30,West,270,5.4,9.8,67,0.00,,,0.01,pywws,2013-02-08 22:16:00,
2013-02-08 17:21:00,59.2,48.6,30.30,NW,315,5.4,9.2,68,0.00,,,0.01,pywws,2013-02-08 22:21:00,
2013-02-08 17:31:00,59.2,48.6,30.30,WNW,292,3.1,6.0,68,0.00,,,0.01,pywws,2013-02-08 22:31:00,
2013-02-08 17:35:00,59.0,48.8,30.30,West,270,4.5,6.9,69,0.00,,,0.01,pywws,2013-02-08 22:35:00,
2013-02-08 17:40:00,58.8,48.7,30.30,North,0,3.1,4.5,69,0.00,,,0.01,pywws,2013-02-08 22:40:00,
2013-02-08 17:45:00,58.8,48.7,30.30,West,270,3.8,6.0,69,0.00,,,0.01,pywws,2013-02-08 22:45:00,
2013-02-08 17:50:00,58.6,48.9,30.30,NW,315,3.1,5.4,70,0.00,,,0.01,pywws,2013-02-08 22:50:00,
2013-02-08 18:01:00,58.5,48.7,30.30,SW,225,3.8,6.0,70,0.00,,,0.01,pywws,2013-02-08 23:01:00,
2013-02-08 18:06:00,58.3,48.9,30.30,WSW,248,2.2,3.8,71,0.00,,,0.01,pywws,2013-02-08 23:06:00,
2013-02-08 18:11:00,58.1,48.7,30.30,NW,315,1.6,3.1,71,0.00,,,0.01,pywws,2013-02-08 23:11:00,
2013-02-08 18:16:00,58.1,48.7,30.30,NW,315,2.2,3.8,71,0.00,,,0.01,pywws,2013-02-08 23:16:00,
2013-02-08 18:21:00,57.7,48.8,30.30,West,270,2.2,3.8,72,0.00,,,0.01,pywws,2013-02-08 23:21:00,
2013-02-08 18:31:00,57.6,49.0,30.30,SW,225,1.6,3.8,73,0.00,,,0.01,pywws,2013-02-08 23:31:00,
2013-02-08 18:35:00,57.2,49.0,30.30,NW,315,2.2,3.8,74,0.00,,,0.01,pywws,2013-02-08 23:35:00,
2013-02-08 18:40:00,57.0,48.8,30.30,West,270,2.2,3.8,74,0.00,,,0.01,pywws,2013-02-08 23:40:00,
2013-02-08 18:45:00,56.8,49.0,30.30,West,270,2.2,3.1,75,0.00,,,0.01,pywws,2013-02-08 23:45:00,
2013-02-08 18:50:00,56.7,48.8,30.30,West,270,1.6,3.1,75,0.00,,,0.01,pywws,2013-02-08 23:50:00,
2013-02-08 19:01:00,56.3,48.8,30.30,SW,225,0.7,2.2,76,0.00,,,0.01,pywws,2013-02-09 00:01:00,
2013-02-08 19:06:00,55.9,48.5,30.30,West,270,1.6,3.1,76,0.00,,,0.01,pywws,2013-02-09 00:06:00,
2013-02-08 19:11:00,55.8,48.7,30.30,West,270,0.7,2.2,77,0.00,,,0.01,pywws,2013-02-09 00:11:00,
2013-02-08 19:16:00,55.6,48.5,30.30,West,270,1.6,2.2,77,0.00,,,0.01,pywws,2013-02-09 00:16:00,
2013-02-08 19:21:00,55.4,48.7,30.30,NW,315,1.6,2.2,78,0.00,,,0.01,pywws,2013-02-09 00:21:00,
2013-02-08 19:31:00,55.2,48.5,30.30,West,270,1.6,3.1,78,0.00,,,0.01,pywws,2013-02-09 00:31:00,
2013-02-08 19:35:00,54.9,48.5,30.31,WNW,292,1.6,2.2,79,0.00,,,0.01,pywws,2013-02-09 00:35:00,
2013-02-08 19:40:00,54.7,48.6,30.31,NW,315,0.7,2.2,80,0.00,,,0.01,pywws,2013-02-09 00:40:00,
2013-02-08 19:45:00,54.5,48.5,30.31,West,270,1.6,2.2,80,0.00,,,0.01,pywws,2013-02-09 00:45:00,
2013-02-08 19:50:00,54.3,48.6,30.31,West,270,0.7,2.2,81,0.00,,,0.01,pywws,2013-02-09 00:50:00,
2013-02-08 20:01:00,54.1,48.4,30.31,West,270,1.6,2.2,81,0.00,,,0.01,pywws,2013-02-09 01:01:00,
2013-02-08 20:06:00,53.8,48.4,30.31,West,270,0.0,0.7,82,0.00,,,0.01,pywws,2013-02-09 01:06:00,
2013-02-08 20:11:00,53.4,48.1,30.31,NW,315,0.7,2.2,82,0.00,,,0.01,pywws,2013-02-09 01:11:00,
2013-02-08 20:16:00,53.2,48.2,30.31,NW,315,1.6,2.2,83,0.00,,,0.01,pywws,2013-02-09 01:16:00,
2013-02-08 20:21:00,53.2,48.2,30.31,NW,315,1.6,2.2,83,0.00,,,0.01,pywws,2013-02-09 01:21:00,
2013-02-08 20:31:00,53.1,48.0,30.31,West,270,0.7,1.6,83,0.00,,,0.01,pywws,2013-02-09 01:31:00,
2013-02-08 20:36:00,52.9,48.2,30.32,West,270,0.7,2.2,84,0.00,,,0.01,pywws,2013-02-09 01:36:00,
2013-02-08 20:41:00,52.9,48.2,30.32,West,270,0.7,2.2,84,0.00,,,0.01,pywws,2013-02-09 01:41:00,
2013-02-08 20:46:00,52.7,48.3,30.32,NW,315,0.7,1.6,85,0.00,,,0.01,pywws,2013-02-09 01:46:00,
2013-02-08 20:51:00,52.5,48.1,30.32,North,0,0.0,1.6,85,0.00,,,0.01,pywws,2013-02-09 01:51:00,
2013-02-08 21:01:00,52.3,48.0,30.32,NW,315,0.0,0.7,85,0.00,,,0.01,pywws,2013-02-09 02:01:00,
2013-02-08 21:06:00,52.3,48.0,30.32,West,270,0.0,1.6,85,0.00,,,0.01,pywws,2013-02-09 02:06:00,
2013-02-08 21:11:00,52.2,47.8,30.32,West,270,0.0,2.2,85,0.00,,,0.01,pywws,2013-02-09 02:11:00,
2013-02-08 21:16:00,51.8,47.4,30.32,NW,315,0.0,0.7,85,0.00,,,0.01,pywws,2013-02-09 02:16:00,
2013-02-08 21:21:00,51.6,47.6,30.32,North,0,0.0,0.0,86,0.00,,,0.01,pywws,2013-02-09 02:21:00,
2013-02-08 21:31:00,51.3,47.2,30.32,West,270,0.0,0.0,86,0.00,,,0.01,pywws,2013-02-09 02:31:00,
2013-02-08 21:36:00,50.9,47.2,30.32,North,0,0.7,2.2,87,0.00,,,0.01,pywws,2013-02-09 02:36:00,
2013-02-08 21:41:00,50.7,47.3,30.32,West,270,0.7,2.2,88,0.00,,,0.01,pywws,2013-02-09 02:41:00,
2013-02-08 21:46:00,50.7,47.3,30.32,NW,315,1.6,3.1,88,0.00,,,0.01,pywws,2013-02-09 02:46:00,
2013-02-08 21:51:00,50.7,47.3,30.33,West,270,0.7,2.2,88,0.00,,,0.01,pywws,2013-02-09 02:51:00,
2013-02-08 22:01:00,50.7,47.3,30.33,North,0,0.7,1.6,88,0.00,,,0.01,pywws,2013-02-09 03:01:00,
2013-02-08 22:06:00,50.5,47.1,30.33,West,270,1.6,3.1,88,0.00,,,0.01,pywws,2013-02-09 03:06:00,
2013-02-08 22:11:00,50.0,46.9,30.33,NE,45,0.0,1.6,89,0.00,,,0.01,pywws,2013-02-09 03:11:00,
2013-02-08 22:16:00,49.8,46.4,30.33,West,270,0.7,1.6,88,0.00,,,0.01,pywws,2013-02-09 03:16:00,
2013-02-08 22:21:00,49.5,46.4,30.33,SW,225,0.7,1.6,89,0.00,,,0.01,pywws,2013-02-09 03:21:00,
2013-02-08 22:31:00,49.5,46.4,30.33,NW,315,0.0,0.0,89,0.00,,,0.01,pywws,2013-02-09 03:31:00,
2013-02-08 22:36:00,48.9,46.1,30.34,NW,315,0.7,1.6,90,0.00,,,0.01,pywws,2013-02-09 03:36:00,
2013-02-08 22:41:00,48.7,45.9,30.34,North,0,0.0,0.0,90,0.00,,,0.01,pywws,2013-02-09 03:41:00,
2013-02-08 22:46:00,48.4,45.6,30.34,SW,225,0.0,0.0,90,0.00,,,0.01,pywws,2013-02-09 03:46:00,
2013-02-08 22:51:00,47.8,45.1,30.35,SW,225,0.0,0.0,90,0.00,,,0.01,pywws,2013-02-09 03:51:00,
2013-02-08 23:01:00,47.5,44.7,30.35,SW,225,0.0,0.0,90,0.00,,,0.01,pywws,2013-02-09 04:01:00,
2013-02-08 23:06:00,46.8,44.3,30.36,NW,315,0.0,0.0,91,0.00,,,0.01,pywws,2013-02-09 04:06:00,
2013-02-08 23:11:00,46.6,44.1,30.36,West,270,0.0,0.7,91,0.00,,,0.01,pywws,2013-02-09 04:11:00,
2013-02-08 23:16:00,46.2,43.7,30.36,NE,45,0.7,1.6,91,0.00,,,0.01,pywws,2013-02-09 04:16:00,
2013-02-08 23:21:00,45.9,43.4,30.37,East,90,0.0,0.0,91,0.00,,,0.01,pywws,2013-02-09 04:21:00,
2013-02-08 23:31:00,45.7,43.5,30.37,SW,225,0.0,0.0,92,0.00,,,0.01,pywws,2013-02-09 04:31:00,
2013-02-08 23:36:00,45.1,43.2,30.37,North,0,0.7,1.6,93,0.00,,,0.01,pywws,2013-02-09 04:36:00,
2013-02-08 23:41:00,45.0,43.1,30.37,NW,315,0.7,1.6,93,0.00,,,0.01,pywws,2013-02-09 04:41:00,
2013-02-08 23:46:00,45.0,43.3,30.38,NW,315,0.0,0.7,94,0.00,,,0.01,pywws,2013-02-09 04:46:00,
2013-02-08 23:51:00,44.8,42.9,30.38,SW,225,0.0,0.7,93,0.00,,,0.01,pywws,2013-02-09 04:51:00,